Satellite: OKEAN-4
Catalog number: 23317
Epoch time:      09231.67128504
Element set:    0996
Inclination:      082.5395 deg
RA of node:       275.2458 deg
Eccentricity:    0.0022907
Arg of perigee:   151.3441 deg
Mean anomaly:     208.9044 deg
Mean motion:   14.82713864 rev/day
Decay rate:       -8.0e-08 rev/day^2
Epoch rev:           80177
Checksum:              311

Satellite: NOAA-14
Catalog number: 23455
Epoch time:      09231.93669291
Element set:    0729
Inclination:      098.9066 deg
RA of node:       309.3829 deg
Eccentricity:    0.0009531
Arg of perigee:   016.1103 deg
Mean anomaly:     344.0341 deg
Mean motion:   14.13766376 rev/day
Decay rate:      -2.95e-06 rev/day^2
Epoch rev:           75493
Checksum:              322

Satellite: NOAA-15
Catalog number: 25338
Epoch time:      09231.74834812
Element set:    0049
Inclination:      098.5884 deg
RA of node:       219.5767 deg
Eccentricity:    0.0009863
Arg of perigee:   229.0382 deg
Mean anomaly:     130.9924 deg
Mean motion:   14.24779230 rev/day
Decay rate:      -1.46e-06 rev/day^2
Epoch rev:           58582
Checksum:              340

Satellite: RESURS
Catalog number: 25394
Epoch time:      09231.95234430
Element set:    0290
Inclination:      098.3337 deg
RA of node:       261.0440 deg
Eccentricity:    0.0002284
Arg of perigee:   042.6729 deg
Mean anomaly:     317.4628 deg
Mean motion:   14.24188074 rev/day
Decay rate:       -1.7e-07 rev/day^2
Epoch rev:           57747
Checksum:              294

Satellite: FENGYUN1
Catalog number: 25730
Epoch time:      09232.38392124
Element set:     831
Inclination:      098.7572 deg
RA of node:       200.6267 deg
Eccentricity:    0.0023433
Arg of perigee:   036.3371 deg
Mean anomaly:     323.9383 deg
Mean motion:   14.07960518 rev/day
Decay rate:       6.58e-06 rev/day^2
Epoch rev:           52935
Checksum:              301

Satellite: OKEAN-0
Catalog number: 25860
Epoch time:      09231.52515346
Element set:    0762
Inclination:      097.7926 deg
RA of node:       210.2078 deg
Eccentricity:    0.0001246
Arg of perigee:   044.9503 deg
Mean anomaly:     315.1795 deg
Mean motion:   14.73584353 rev/day
Decay rate:        3.2e-07 rev/day^2
Epoch rev:           54247
Checksum:              292

Satellite: NOAA-16
Catalog number: 26536
Epoch time:      09231.75986009
Element set:    0527
Inclination:      099.1787 deg
RA of node:       236.9711 deg
Eccentricity:    0.0011391
Arg of perigee:   102.6556 deg
Mean anomaly:     257.5853 deg
Mean motion:   14.12529069 rev/day
Decay rate:      -1.57e-06 rev/day^2
Epoch rev:           45927
Checksum:              337

Satellite: NOAA-17
Catalog number: 27453
Epoch time:      09231.93794464
Element set:    0529
Inclination:      098.4794 deg
RA of node:       288.7954 deg
Eccentricity:    0.0010785
Arg of perigee:   300.0443 deg
Mean anomaly:     059.9630 deg
Mean motion:   14.24083659 rev/day
Decay rate:       -7.3e-07 rev/day^2
Epoch rev:           37182
Checksum:              342

Satellite: NOAA-18
Catalog number: 28654
Epoch time:      09231.92573047
Element set:    0015
Inclination:      098.9089 deg
RA of node:       174.6800 deg
Eccentricity:    0.0014201
Arg of perigee:   179.2928 deg
Mean anomaly:     180.8301 deg
Mean motion:   14.11277322 rev/day
Decay rate:      -1.49e-06 rev/day^2
Epoch rev:           21894
Checksum:              307

Satellite: NOAA-19
Catalog number: 33591
Epoch time:      09231.91947717
Element set:    0220
Inclination:      098.7480 deg
RA of node:       176.0317 deg
Eccentricity:    0.0015137
Arg of perigee:   064.4445 deg
Mean anomaly:     295.8327 deg
Mean motion:   14.10978192 rev/day
Decay rate:        3.8e-07 rev/day^2
Epoch rev:           02742
Checksum:              315

/EX
SB KEPS @ AMSAT  $ORB09232.M
Orbital Elements  09232.MISC

HR AMSAT ORBITAL ELEMENTS FOR MANNED AND MISCELLANEOUS SATELLITES
FROM WA5QGD FORT WORTH,TX August 20, 2009
Send Subscribe/unsubscribe to KEPS at 
http://www.amsat.org/mailman/listinfo/keps
BID: ORB09232.M
TO ALL RADIO AMATEURS BT

Satellite: HUBBLE
Catalog number: 20580
Epoch time:      09230.15722119
Element set:    0435
Inclination:      028.4707 deg
RA of node:       057.8415 deg
Eccentricity:    0.0003405
Arg of perigee:   218.2776 deg
Mean anomaly:     141.7609 deg
Mean motion:   15.00822419 rev/day
Decay rate:       2.40e-06 rev/day^2
Epoch rev:           85917
Checksum:              277

Satellite: ISS
Catalog number: 25544
Epoch time:      09232.76531237
Element set:     450
Inclination:      051.6413 deg
RA of node:       335.3302 deg
Eccentricity:    0.0008604
Arg of perigee:   358.8497 deg
Mean anomaly:     138.3300 deg
Mean motion:   15.73685025 rev/day
Decay rate:      6.251e-05 rev/day^2
Epoch rev:           61612
Checksum:              278

Satellite: CO-58
Catalog number: 28895
Epoch time:      09232.22134410
Element set:     374
Inclination:      098.0503 deg
RA of node:       121.0166 deg
Eccentricity:    0.0018403
Arg of perigee:   144.4307 deg
Mean anomaly:     215.8111 deg
Mean motion:   14.59788653 rev/day
Decay rate:       1.25e-06 rev/day^2
Epoch rev:           20307
Checksum:              278

